Regional Weather Roundup
Issued by NWS

Home | Current Version | Previous Version | Graphics & Text | Print | Product List | Glossary On
Versions: 1 2 3 4 5 6 7 8 9 10 11 12 13 14 15 16 17 18 19 20 21 22 23 24 25 26 27 28 29 30 31 32 33 34 35 36 37 38 39 40 41 42 43 44 45 46 47 48 49 50
787
ASUS43 KDMX 081708
RWRIA

WEATHER ROUNDUP FOR IOWA
NATIONAL WEATHER SERVICE DES MOINES IA
1100 AM CST MON FEB 08 2016

NOTE: "FAIR" INDICATES FEW OR NO CLOUDS BELOW 12,000 FEET WITH NO
SIGNIFICANT WEATHER AND/OR OBSTRUCTIONS TO VISIBILITY.

* - THESE STATIONS ARE NOT NWS STATIONS...THUS NOT UNDER NWS
QUALITY CONTROL.  THEY ALSO DO NOT REPORT WEATHER SUCH
AS PRECIPITATION OR FOG.

IAZ001>003-012>014-020>022-031>034-043>046-081800-
   NORTHWEST IOWA

CITY           SKY/WX    TMP DP  RH WIND       PRES   REMARKS
CARROLL *      LGT SNOW  19  14  79 NW33G44   30.03R WCI   0
CHEROKEE *     LGT SNOW  19  14  79 N26G37    30.07R WCI   1
DENISON *      LGT SNOW  19  16  86 N31       30.04R VSB 3/4 WCI   0
LE MARS *      FLURRIES  23  18  80 N28G37    30.13R WCI   6
ORANGE CITY *    N/A     19  16  86 N18G30    30.08R WCI   4
SHELDON *      SNOW      16  14  93 N31G39    30.06R VSB 0   WCI  -5
SIOUX CITY     FLURRIES  25  14  63 N38G49    30.11R WCI   6
SPENCER        CLOUDY    15   7  70 N36G47    30.04R BLWGSNOWWCI  -7
STORM LAKE *   SNOW      18  14  86 N37G47    30.02R VSB 1/2 WCI  -4
$$

IAZ055>058-069>071-079>083-090>094-081800-
   SOUTHWEST IOWA

CITY           SKY/WX    TMP DP  RH WIND       PRES   REMARKS
ATLANTIC *     LGT SNOW  21  16  79 NW25G31   30.06S WCI   4
AUDUBON *      CLOUDY    19  16  86 NW25G32   30.04R WCI   2
CLARINDA *     LGT SNOW  25  19  80 N24G33    30.10R WCI   9
COUNCIL BLFS * CLOUDY    25  18  74 N28G39    30.08R WCI   8
CRESTON *      FLURRIES  21  12  68 NW39G49   30.01S WCI   1
HARLAN  *      LGT SNOW  21  16  79 N29G38    30.10R WCI   3
LAMONI         LGT SNOW  21  13  71 NW30G38   29.99R WCI   3
SHENANDOAH *   FLURRIES  27  21  80 N18G36    30.11R WCI  13
$$

IAZ047>049-059>061-072>074-084-081800-
   CENTRAL IOWA

CITY           SKY/WX    TMP DP  RH WIND       PRES   REMARKS
AMES           LGT SNOW  16   8  71 NW25G41   29.98R WCI  -3
ANKENY *       LGT SNOW  18  12  79 NW16G29   29.99R WCI   3
BOONE *        CLOUDY    16   7  67 NW29G35   29.96R HAZE    WCI  -4
CHARITON *     LGT SNOW  19  10  68 NW30G45   29.95S WCI   0
DES MOINES     SNOW      18  10  71 NW31G40   29.98R VSB 1/2 WCI  -2
GRINNELL*      FLURRIES  16  12  86 NW25G32   29.91R WCI  -3
KNOXVILLE *    FLURRIES  18   9  68 NW32G38   29.93R WCI  -3
MARSHALLTOWN   LGT SNOW  14   9  80 NW26G35   29.92R WCI  -6
NEWTON *       LGT SNOW  16  12  86 NW23G31   29.94R WCI  -2
PELLA *        LGT SNOW  18  12  79 NW24G30   29.96R WCI   0
$$

IAZ004>006-015-016-023>025-035-036-081800-
   NORTH CENTRAL IOWA

CITY           SKY/WX    TMP DP  RH WIND       PRES   REMARKS
ALGONA *       LGT SNOW  14   9  79 N31G46    29.97R WCI  -7
CLARION *      LGT SNOW  14   7  73 NW32G45   29.95R WCI  -7
FORT DODGE *   PTSUNNY   16   7  67 N17G32    30.00R WCI   0
MASON CITY     SNOW      12   7  80 NW28G36   29.92R VSB 1/2 WCI  -9
FOREST CITY *  CLOUDY    12   9  85 NW24G40   29.92S HAZE    WCI  -8
WEBSTER CITY * SNOW      14  10  85 NW37G45   29.95R VSB 1/4 WCI  -9
IOWA FALLS *   CLOUDY    14  10  83 NW31      29.92S WCI  -7
$$

IAZ007>011-017>019-026>030-037>042-050>054-066-081800-
   NORTHEAST IOWA

CITY           SKY/WX    TMP DP  RH WIND       PRES   REMARKS
CEDAR RAPIDS   LGT SNOW  17  12  80 NW22      29.84R WCI   0
CHARLES CITY * LGT SNOW  14  10  85 NW26      29.87R WCI  -6
CLINTON *      FLURRIES  21  15  78 NW18      29.78R WCI   6
DECORAH *      FLURRIES  16   9  73 NW20G30   29.81R WCI  -1
DUBUQUE        CLOUDY    19  12  74 NW15G24   29.76R WCI   5
MONTICELLO *   CLOUDY    19  12  73 NW16      29.80S WCI   5
OELWEIN *      CLOUDY    14  10  85 NW24      29.84R HAZE    WCI  -5
WATERLOO       LGT SNOW  14   8  77 NW22      29.88R WCI  -4
$$

IAZ064-065-067-068-078-081800-
   EAST CENTRAL IOWA

CITY           SKY/WX    TMP DP  RH WIND       PRES   REMARKS
DAVENPORT      FLURRIES  20  12  71 NW17G26   29.80R WCI   5
IOWA CITY      LGT SNOW  18  10  71 NW22G33   29.87R WCI   1
MT. PLEASANT * FLURRIES  21  12  68 NW18G26   29.88R WCI   6
MUSCATINE *    CLOUDY    21  12  68 NW21      29.86S WCI   6
QUAD CITIES    LGT SNOW  21  13  71 NW18      29.80S WCI   6
$$

IAZ062-063-075>077-085>089-095>099-081800-
   SOUTHEAST IOWA

CITY           SKY/WX    TMP DP  RH WIND       PRES   REMARKS
BURLINGTON     FLURRIES  19  12  74 NW17G26   29.85S WCI   4
FAIRFIELD *    FLURRIES  18  10  73 NW22G29   29.88S WCI   0
FORT MADISON * FLURRIES  18  12  79 NW26      29.87S WCI  -1
KEOKUK *       FLURRIES  19  12  73 NW16G24   29.89R WCI   5
OSKALOOSA *    LGT SNOW  16  12  86 NW25G33   29.92S WCI  -3
CENTERVILLE *    N/A    N/A N/A N/A MISG        N/A
OTTUMWA        LGT SNOW  17  11  77 NW30      29.92R WCI  -3
WASHINGTON *   FLURRIES  18  10  73 NW20G31   29.89R WCI   1
$$

ABBREVIATIONS USED IN REMARKS
   TC - TEMPERATURES IN CELSIUS
  WCI - WIND CHILL INDEX
   HX - HEAT INDEX
  VSB - VISIBILITY
$$





USA.gov is the U.S. government's official web portal to all federal, state and local government web resources and services.